Location: Newark
(33.6333°S, 78.8500°W)
Time: 02:28:35
(UTC+00:00)

Courier 1B - Pass Details

Date: 01 October 2019
Orbit: 962 x 1209 km, 28.3° (Epoch: 22 October)

Event Time Altitude Azimuth Distance (km) Brightness Sun altitude
Rises 23:50:41 0° 269° (W) 4,104 13.1 -7.7°
Reaches altitude 10° 23:53:53 10° 278° (W) 3,119 11.6 -8.4°
Maximum altitude 00:00:37 33° 338° (NNW) 1,841 9.1 -9.8°
Drops below altitude 10° 00:07:03 10° 39° (NE) 2,974 9.6 -11.1°
Enters shadow 00:08:08 - 43° (NE) 3,296 9.8 -11.3°
Sets 00:10:02 0° 48° (NE) 3,888 - -11.7°
